Weather in Stupino

Russia / Tula Oblast     53°08′09″N   38°31′08″E
temp.,
°C
wind,
m/s
gust,
m/s
humid.,
%
clouds,
%
prec.,
mm/h
press.,
hPa
HPBL,
m
2 march, tue
tue200:00−3wsw6139386 0.0 1021428
03:000w7139493 0.0 1018734
06:00+1w71392100 0.0 1015755
09:00+1w71396100 0.0 1013685
12:00+1wnw613100100 0.0 1011571
15:00+1wnw611100100 0.2 1010576
18:000nw61197100 0.5 1009608
21:00−1nw5129499 0.7 1011484
3 march, wed
wed300:00−3nw5129171 0.0 1012356
03:00−3nw6139380 0.1 1014580
06:00−4nw6139296 0.1 1015644
09:00−5nw6138994 0.1 1017662
12:00−3nw711840 0.0 1017892
15:00−2wnw510850 0.0 1017790
18:00−2wnw6118955 0.1 1016703
21:00−3w5119055 0.1 1017324
4 march, thu
thu400:00−2w5119198 0.0 1015580
03:00−2w5119199 0.0 1014535
06:00−3wsw71492100 0.0 1011357
09:00−1wsw9188798 0.0 1009571
12:000wsw9168090 0.0 1006788
15:00+1wsw8168785 0.0 1004751
18:00+1wsw6158783 0.0 1002639
21:00+1w6129878 0.1 1002503
5 march, fri
fri500:000nw5997100 0.5 1002457
03:00−3nne3592100 0.8 1005160
06:00−5nnw3490100 0.0 100791
09:00−5n2392100 0.0 1009152
12:00−3ene118599 0.0 1010300
15:00−2ene228599 0.0 1010342
18:00−4ene2494100 0.0 1010119
21:00−5ene2496100 0.2 1010185
6 march, sat
sat600:00−5nne3596100 0.5 1010247
03:00−6n4793100 0.6 1011293
06:00−8n369399 0.0 1012146
09:00−8nnw479350 0.0 1013207
12:00−6nnw46869 0.0 1014413
15:00−5nw478313 0.0 1015684
18:00−8nw34890 0.0 101554
21:00−10w34910 0.0 101656